Stations météo

Publicité
Toussus Le Noble, France (7146): Température de l'air & dewpoint: 12.09.2018 18:00:00 - 18.09.2018 18:00:00 (CEST)Toussus Le Noble, France (7146): Température de l'air 5cm: 12.09.2018 18:00:00 - 18.09.2018 18:00:00 (CEST)Toussus Le Noble, France (7146): Vitesse du vent & gusts: 12.09.2018 18:00:00 - 18.09.2018 18:00:00 (CEST)Toussus Le Noble, France (7146): Direction du vent: 12.09.2018 18:00:00 - 18.09.2018 18:00:00 (CEST)Toussus Le Noble, France (7146): reduced air pressure: 12.09.2018 18:00:00 - 18.09.2018 18:00:00 (CEST)Toussus Le Noble, France (7146): visibility: 12.09.2018 18:00:00 - 18.09.2018 18:00:00 (CEST)Toussus Le Noble, France (7146): Quantités de précipitations: 12.09.2018 18:00:00 - 18.09.2018 18:00:00 (CEST)
Date & Time tt [°C] td [°C] tt 5cm [°C] ff [km/h] ff [knt] fx [km/h] fx [knt] dd ppp [hPa] vv [km] rr [mm]
18.09.2018 18:00:00 22,8 16,6 23,9 16 9 28 15 S 1015,6 54 0,0
18.09.2018 17:00:00 23,0 16,8 23,9 19 10 31 17 SSW 1015,7 40 0,0
18.09.2018 16:00:00 22,2 16,5 23,5 17 9 29 16 SSW 1016,2 46 0,0
18.09.2018 15:00:00 22,6 16,8 21,5 16 9 29 15 SSW 1015,7 47 0,0
18.09.2018 14:00:00 21,1 17,3 19,4 22 12 30 16 SSW 1016,0 46 0,6
18.09.2018 13:00:00 22,6 16,6 20,4 18 10 35 19 SSW 1015,4 19 0,0
18.09.2018 12:00:00 24,9 16,6 23,1 21 11 29 15 SSW 1015,0 20 0,0
18.09.2018 11:00:00 20,9 16,1 21,7 13 7 24 13 SSW 1014,9 35 0,0
18.09.2018 10:00:00 19,5 16,0 17,8 12 7 24 13 SSW 1014,4 20 0,0
18.09.2018 09:00:00 17,2 14,8 16,2 11 6 31 17 WSW 1014,2 15 0,0
18.09.2018 08:00:00 17,0 13,3 16,2 18 10 27 14 WSW 1013,8 31 0,0
18.09.2018 07:00:00 17,4 13,3 15,9 13 7 18 10 SW 1012,9 41 0,0
18.09.2018 06:00:00 17,6 12,3 15,9 12 6 18 10 SSW 1012,2 51 0,0
18.09.2018 05:00:00 18,1 11,6 15,8 12 6 18 10 S 1011,8 59 0,0
18.09.2018 04:00:00 18,4 10,5 15,6 10 6 14 7 S 1011,8 60 0,0
18.09.2018 03:00:00 19,6 9,2 15,1 9 5 14 7 S 1011,8 60 0,0
18.09.2018 02:00:00 17,9 9,5 13,1 6 3 9 5 SSE 1012,1 60 0,0
18.09.2018 01:00:00 15,5 9,6 13,3 5 3 6 4 ESE 1012,5 60 0,0
18.09.2018 00:00:00 15,9 9,3 13,3 5 3 6 3 SE 1012,7 60 0,0
17.09.2018 23:00:00 16,4 9,1 13,8 3 2 5 3 E 1012,9 60 0,0
17.09.2018 22:00:00 17,2 8,9 14,5 3 1 4 2 ESE 1013,2 60 0,0
17.09.2018 21:00:00 19,9 8,6 16,0 3 1 7 4 E 1013,2 60 0,0
17.09.2018 20:00:00 25,3 7,4 19,6 5 3 22 12 SSE 1012,9 60 0,0
17.09.2018 19:00:00 27,9 7,2 25,9 10 6 22 12 S 1013,1 60 0,0
17.09.2018 18:00:00 28,6 7,2 27,7 14 7 29 16 SSE 1013,6 53 0,0
17.09.2018 17:00:00 28,5 6,6 32,2 15 8 31 17 S 1014,2 19 0,0
17.09.2018 16:00:00 28,6 4,8 27,5 12 6 29 16 SSE 1015,1 60 0,0
17.09.2018 15:00:00 27,1 7,5 28,0 13 7 29 15 SSE 1015,9 20 0,0
17.09.2018 14:00:00 26,0 8,0 31,6 13 7 25 13 SSE 1016,9 19 0,0
17.09.2018 13:00:00 25,0 8,0 28,9 10 6 22 12 SSE 1017,9 51 0,0
17.09.2018 12:00:00 23,3 9,3 26,3 12 7 23 13 SE 1018,8 53 0,0
17.09.2018 11:00:00 21,3 10,1 23,2 8 4 19 10 SSE 1019,3 55 0,0
17.09.2018 10:00:00 18,8 11,1 14,3 5 3 9 5 SE 1019,7 36 0,0
17.09.2018 09:00:00 13,0 9,4 8,3 10 6 19 11 NW 1020,1 20 0,0
17.09.2018 08:00:00 9,1 6,5 6,1 5 3 6 3 SE 1019,9 44 0,0
17.09.2018 07:00:00 8,9 6,2 6,7 3 2 12 7 SE 1020,1 54 0,0
17.09.2018 06:00:00 9,1 7,7 6,5 11 6 15 8 NW 1020,8 52 0,0
17.09.2018 05:00:00 8,4 6,7 6,5 0 0 4 2 N 1020,6 42 0,0
17.09.2018 04:00:00 9,5 7,4 7,4 0 0 5 3 N 1020,5 47 0,0
17.09.2018 03:00:00 10,0 7,6 7,8 0 0 5 3 N 1020,5 55 0,0
17.09.2018 02:00:00 11,3 8,7 7,8 2 1 4 2 SSE 1020,6 60 0,0
17.09.2018 01:00:00 10,9 7,6 8,9 2 1 6 3 S 1020,9 60 0,0
17.09.2018 00:00:00 12,8 8,3 10,5 0 0 6 4 N 1021,0 60 0,0
16.09.2018 23:00:00 14,2 8,8 11,5 5 3 6 3 NW 1021,1 60 0,0
16.09.2018 22:00:00 15,4 9,7 12,9 3 2 9 5 NNW 1020,9 60 0,0
16.09.2018 21:00:00 17,4 9,0 14,6 2 1 2 1 NW 1020,4 60 0,0
16.09.2018 20:00:00 19,9 10,0 17,9 0 0 4 2 N 1019,8 60 0,0
16.09.2018 19:00:00 22,8 7,7 21,9 3 1 7 4 SW 1019,6 60 0,0
16.09.2018 18:00:00 23,4 7,9 24,2 6 3 11 6 SSW 1019,2 60 0,0
16.09.2018 17:00:00 24,3 8,3 26,3 7 4 13 7 WNW 1019,4 60 0,0
16.09.2018 16:00:00 24,9 6,6 26,1 8 4 14 8 SSW 1019,6 59 0,0
16.09.2018 15:00:00 23,5 7,1 28,0 4 2 14 8 SSW 1020,1 60 0,0
16.09.2018 14:00:00 22,7 8,0 26,8 5 3 16 9 ESE 1020,5 20 0,0
16.09.2018 13:00:00 22,0 8,1 27,8 6 4 18 10 SE 1020,9 49 0,0
16.09.2018 12:00:00 21,0 9,9 23,9 7 4 18 10 SSE 1021,6 55 0,0
16.09.2018 11:00:00 19,7 9,6 20,6 8 4 12 6 SE 1021,9 55 0,0
16.09.2018 10:00:00 16,3 9,5 14,7 8 4 13 7 ESE 1022,1 57 0,0
16.09.2018 09:00:00 13,6 9,6 6,7 0 0 8 5 N 1022,4 36 0,0
16.09.2018 08:00:00 7,5 5,0 4,8 0 0 5 3 N 1022,6 20 0,0
16.09.2018 07:00:00 7,0 5,0 5,2 0 0 2 1 N 1022,6 6 0,0
16.09.2018 06:00:00 7,5 5,0 5,4 3 2 7 4 ESE 1022,8 26 0,0
16.09.2018 05:00:00 7,9 5,9 5,7 0 0 3 1 N 1023,0 17 0,0
16.09.2018 04:00:00 9,1 6,2 6,6 3 1 4 2 NW 1023,5 29 0,0
16.09.2018 03:00:00 9,8 7,7 7,0 0 0 7 4 N 1023,5 36 0,0
16.09.2018 02:00:00 9,7 6,2 7,4 6 3 7 4 ESE 1023,8 45 0,0
16.09.2018 01:00:00 9,7 6,2 7,8 0 0 0 0 N 1024,5 48 0,0
16.09.2018 00:00:00 11,1 8,1 8,6 0 0 0 0 N 1025,1 51 0,0
15.09.2018 23:00:00 11,3 6,8 9,4 0 0 3 2 N 1025,2 59 0,0
15.09.2018 22:00:00 12,6 7,3 10,3 0 0 4 2 N 1025,4 60 0,0
15.09.2018 21:00:00 14,8 8,3 11,9 0 0 5 3 N 1024,9 47 0,0
15.09.2018 20:00:00 18,4 8,4 15,3 3 2 9 5 ENE 1024,3 60 0,0
15.09.2018 19:00:00 20,2 8,2 19,5 6 4 14 8 E 1024,2 59 0,0
15.09.2018 18:00:00 20,9 8,8 20,7 4 2 19 10 ESE 1024,2 60 0,0
15.09.2018 17:00:00 20,5 8,5 22,2 5 3 16 9 E 1024,6 20 0,0
15.09.2018 16:00:00 20,7 9,3 22,4 7 4 16 8 NNE 1024,7 60 0,0
15.09.2018 15:00:00 20,2 8,5 27,2 5 3 17 9 NNW 1025,4 58 0,0
15.09.2018 14:00:00 19,8 10,2 20,9 8 4 15 8 SE 1025,9 19 0,0
15.09.2018 13:00:00 18,6 10,4 19,5 3 1 7 4 SSW 1026,5 58 0,0
15.09.2018 12:00:00 17,4 10,7 20,2 5 3 11 6 NW 1026,6 54 0,0
15.09.2018 11:00:00 17,8 11,6 18,4 4 2 9 5 SW 1026,7 52 0,0
15.09.2018 10:00:00 15,4 10,8 13,0 0 0 6 3 N 1026,6 52 0,0
15.09.2018 09:00:00 11,8 9,4 7,0 3 1 4 2 SW 1026,4 45 0,0
15.09.2018 08:00:00 7,7 6,3 5,4 3 2 5 3 WSW 1026,3 26 0,0
15.09.2018 07:00:00 8,8 7,2 6,4 6 3 7 4 SW 1025,8 52 0,0
15.09.2018 06:00:00 8,7 7,1 6,6 6 3 8 5 NNW 1025,4 58 0,0
15.09.2018 05:00:00 9,3 6,9 7,2 2 1 6 3 NW 1025,1 46 0,0
15.09.2018 04:00:00 9,8 8,1 7,3 0 0 8 5 N 1025,1 58 0,0
15.09.2018 03:00:00 9,4 7,3 8,5 8 4 9 5 NNW 1025,1 59 0,0
15.09.2018 02:00:00 9,8 7,0 8,5 9 5 10 5 NNW 1025,2 60 0,0
15.09.2018 01:00:00 10,7 6,8 8,5 7 4 13 7 NNW 1025,1 60 0,0
15.09.2018 00:00:00 11,0 7,1 9,2 8 5 12 7 NW 1024,6 60 0,0
14.09.2018 23:00:00 12,2 7,3 10,3 6 3 11 6 NNW 1024,3 60 0,0
14.09.2018 22:00:00 12,4 7,1 11,6 9 5 14 7 NNW 1024,1 60 0,0
14.09.2018 21:00:00 13,8 7,3 13,0 9 5 23 12 NNW 1023,4 60 0,0
14.09.2018 20:00:00 16,6 8,0 16,2 17 9 31 17 NNW 1022,5 60 0,0
14.09.2018 19:00:00 19,5 8,2 18,9 20 11 32 17 NNW 1021,7 45 0,0
14.09.2018 18:00:00 20,7 6,6 20,8 16 9 26 14 NW 1021,4 59 0,0
14.09.2018 17:00:00 21,6 7,8 24,4 10 6 25 14 NW 1021,6 47 0,0
14.09.2018 16:00:00 20,2 6,9 21,4 12 7 27 15 NW 1021,8 60 0,0
14.09.2018 15:00:00 21,2 9,1 21,2 9 5 27 15 NW 1021,7 54 0,0
14.09.2018 14:00:00 19,7 8,4 21,6 11 6 23 12 WNW 1022,3 60 0,0
14.09.2018 13:00:00 19,7 10,4 20,7 8 4 21 11 NNW 1022,4 59 0,0
14.09.2018 12:00:00 18,5 9,8 22,9 10 5 20 11 NW 1022,7 57 0,0
14.09.2018 11:00:00 16,7 10,5 17,9 7 4 15 8 NNW 1022,8 20 0,0
14.09.2018 10:00:00 14,6 11,0 14,1 9 5 14 7 NNW 1022,7 37 0,0
14.09.2018 09:00:00 12,5 10,7 9,6 8 4 11 6 NNW 1022,7 19 0,2
14.09.2018 08:00:00 9,5 8,9 8,9 7 4 9 5 NNW 1022,6 7 0,0
14.09.2018 07:00:00 9,4 8,6 8,9 10 5 11 6 NNW 1022,3 8 0,0
14.09.2018 06:00:00 9,7 8,8 9,1 8 4 13 7 NW 1022,3 8 0,0
14.09.2018 05:00:00 9,9 9,0 9,2 11 6 13 7 NW 1022,4 12 0,0
14.09.2018 04:00:00 10,5 8,9 9,9 10 5 11 6 NW 1022,5 14 0,0
14.09.2018 03:00:00 12,2 10,3 10,8 3 2 12 6 NW 1022,6 25 0,0
14.09.2018 02:00:00 13,3 11,0 12,6 9 5 20 11 N 1022,7 38 0,0
14.09.2018 01:00:00 14,3 12,0 14,0 10 6 13 7 NNW 1022,5 35 0,0
14.09.2018 00:00:00 15,0 12,3 14,9 7 4 9 5 NNW 1022,3 34 0,0
13.09.2018 23:00:00 15,6 12,3 15,4 6 4 10 6 NNW 1022,1 41 0,0
13.09.2018 22:00:00 16,0 12,5 15,7 5 3 12 7 NW 1022,2 44 0,0
13.09.2018 21:00:00 16,5 12,3 16,0 8 4 15 8 N 1021,8 40 0,0
13.09.2018 20:00:00 16,7 12,4 16,6 11 6 16 9 N 1021,2 37 0,0
13.09.2018 19:00:00 17,0 12,9 17,4 10 5 17 9 N 1021,1 35 0,0
13.09.2018 18:00:00 16,8 12,7 17,1 10 5 23 12 N 1021,2 23 0,0
13.09.2018 17:00:00 16,4 13,1 16,9 14 8 27 15 N 1021,4 8 0,0
13.09.2018 16:00:00 16,8 13,5 16,7 11 6 19 10 N 1021,3 13 0,0
13.09.2018 15:00:00 16,3 13,6 16,4 12 6 23 12 N 1021,8 11 0,0
13.09.2018 14:00:00 15,7 13,5 15,6 11 6 22 12 N 1021,8 8 0,0
13.09.2018 13:00:00 15,4 13,8 15,4 13 7 21 11 N 1021,9 5 0,0
13.09.2018 12:00:00 15,1 14,0 15,3 14 8 22 12 N 1021,9 3,5 0,0
13.09.2018 11:00:00 14,6 13,8 14,7 11 6 22 12 N 1021,7 2,8 0,0
13.09.2018 10:00:00 14,7 13,9 14,5 10 6 20 11 N 1021,3 4,2 0,2
13.09.2018 09:00:00 14,7 13,9 14,6 11 6 24 13 N 1020,7 6 0,0
13.09.2018 08:00:00 14,8 14,0 14,5 13 7 21 11 N 1020,4 3,6 0,2
13.09.2018 07:00:00 15,0 14,0 14,6 14 8 22 12 N 1020,1 4,0 0,6
13.09.2018 06:00:00 15,2 13,9 14,8 11 6 23 12 N 1020,2 4,6 0,0
13.09.2018 05:00:00 15,9 14,1 15,7 8 4 11 6 NNW 1020,1 7 0,0
13.09.2018 04:00:00 16,1 14,1 16,0 6 3 22 12 NNE 1020,4 8 0,0
13.09.2018 03:00:00 16,5 14,3 16,5 15 8 24 13 N 1020,7 10 0,0
13.09.2018 02:00:00 16,9 14,7 16,4 9 5 13 7 N 1020,6 34 0,0
13.09.2018 01:00:00 17,9 15,0 17,4 8 5 16 9 N 1020,7 46 0,0
13.09.2018 00:00:00 18,2 15,3 17,8 7 4 15 8 ENE 1020,4 60 0,0
12.09.2018 23:00:00 18,9 15,4 18,4 9 5 22 12 N 1020,7 60 0,0
12.09.2018 22:00:00 19,8 14,8 18,8 10 5 21 11 N 1020,5 60 0,0
12.09.2018 21:00:00 20,7 13,9 20,0 11 6 26 14 N 1020,1 58 0,0
12.09.2018 20:00:00 22,3 13,4 21,7 15 8 25 13 N 1019,8 48 0,0
12.09.2018 19:00:00 24,6 12,9 24,7 13 7 22 12 N 1019,4 60 0,0
12.09.2018 18:00:00 26,1 12,9 26,6 11 6 24 13 NNW 1019,4 60 0,0

tt = Température de l'air
td = dewpoint
tt 5cm = Température de l'air 5cm
ff = Vitesse du vent
fx = gusts
dd = Direction du vent
ppp = reduced air pressure
vv = visibility
rr = Quantités de précipitations

stations d'obs. à proximité